GSAT-7A

Last updated on Sat Aug 15 2026 00:03:01 GMT+0000 (Coordinated Universal Time)

1 43864U 18105A 26226.59332206 .00000011 00000+0 00000+0 0 9998 2 43864 0.0569 269.1569 0001411 225.7610 104.4507 1.00271671 28034
UTC large
Height (km)
Speed (km/s)
/
Latitude / Longitude
Inclination (degrees)
Orbital Period (minutes)
Azimuth
Elevation
Range (km)
Doppler Factor

Next 0 passes for location: London (51.5072 / 0.1276)

No passes found over London.
GSAT-7A